DMSP 5D-2 F13 DEB, 40676

Orbit data source: Space-Track

DMSP 5D-2 F13 DEB, 40676 is space debris in SSO originally from a launch on Fri, 24 Mar 1995 UTC launched from the Air Force Western Test Range (AFWTR). Debris objects in space refer to the collection of defunct objects orbiting the Earth. Examples of debris include non-operational satellites, rocket bodies, and fragments generated from explosions, collisions, or faulty payload assembly.

Loading next visibility...
Identifier
40676, 1995-015FQ
Orbit
SSO
Country
Flag of USUS
Related business
Manufacturer
Unknown
Mission
Spacecraft
Bus & Motor
Unknown
Mass
Unknown
Launch date (UTC)
1995-03-24 (31 years ago)
Launch vehicle
Unknown
Launch site
Air Force Western Test Range (AFWTR)
Object type
Payload
Rocket body
Debris
Shape & HBR
Unknown shape, 0.1 m
Radar Cross Section
Small (<0.1 m²)

Expand to show TLE details & history
Last TLE update: 2 days ago

TLE from 2 days ago
0 DMSP 5D-2 F13 DEB
1 40676U 95015FQ  25347.82758051  .00006864  00000-0  22310-2 0  9994
2 40676  98.6956  20.2239 0005750 202.4759 157.6177 14.39121082549724
Epoch: 2025-12-13T19:51Z
TLE epoch observation values (Epoch: 2025-12-13T19:51:42.956Z)
Latitude
Longitude
-0.45435°
Altitude
768.142 km
Speed
7.468 km/s
True Right ascension
01h 20m 53s
True Declination
0° 00' 00"
Sunlit
Object was in daylight at epoch
Visualization orbit readout
Latitude
Unknown
Longitude
Unknown
Altitude
Unknown
Speed
Unknown
Apparent Right ascension
Unknown
Apparent Declination
Unknown
Sunlit
N/A
Visualization observer readout
Local Sidereal Time
04:10:29
Azimuth
Unknown
Elevation
Unknown
Doppler factor
Unknown
Orbital elements
Apogee altitude
762.64 km
Perigee altitude
754.433 km
Semi-major axis
7,136.673 km
Eccentricity
0.00058
Inclination
98.6956°
RAAN
20.2239°
Arg. of periapsis
202.4759°
True anomaly
157.64277°
Mean anomaly
157.6177°
Eccentric anomaly
157.63024°
Mean motion
3.59997 °/min
Orbital period
100 mins
BSTAR
0.002231
Loading maneuver chart data...
Computing Atmospheric mass density...

Documentation

Showing up to 5 results
|